Hourly Weather Rudi

Today, 11 April, Sunday

Time Temperature Precipitation Wind Pressure Humidity
00:00 +5°C° 0 mm 2 mps 746 mmHg 57%
01:00 +5°C° 0 mm 2 mps 746 mmHg 59%
02:00 +4°C° 0 mm 2 mps 747 mmHg 60%
03:00 +4°C° 0 mm 2 mps 747 mmHg 62%
04:00 +3°C° 0 mm 2 mps 747 mmHg 63%
05:00 +3°C° 0 mm 2 mps 747 mmHg 65%
06:00 +4°C° 0 mm 2 mps 747 mmHg 61%
07:00 +6°C° 0 mm 2 mps 748 mmHg 57%
08:00 +7°C° 0 mm 3 mps 748 mmHg 54%
09:00 +9°C° 0 mm 3 mps 748 mmHg 48%
10:00 +10°C° 0 mm 4 mps 748 mmHg 43%
11:00 +12°C° 0 mm 4 mps 748 mmHg 37%
12:00 +12°C° 0 mm 4 mps 748 mmHg 35%
13:00 +13°C° 0 mm 4 mps 748 mmHg 33%
14:00 +13°C° 0 mm 3 mps 747 mmHg 31%
15:00 +13°C° 0 mm 4 mps 747 mmHg 31%
16:00 +13°C° 0 mm 4 mps 747 mmHg 31%
17:00 +13°C° 0 mm 4 mps 747 mmHg 32%
18:00 +11°C° 0 mm 3 mps 747 mmHg 37%
19:00 +10°C° 0 mm 3 mps 747 mmHg 42%
20:00 +9°C° 0 mm 2 mps 747 mmHg 47%
21:00 +8°C° 0 mm 2 mps 747 mmHg 49%
22:00 +8°C° 0 mm 2 mps 747 mmHg 51%
23:00 +7°C° 0 mm 2 mps 747 mmHg 53%

Tomorrow, 12 April, Monday

Time Temperature Precipitation Wind Pressure Humidity
00:00 +7°C° 0 mm 2 mps 747 mmHg 54%
01:00 +6°C° 0 mm 2 mps 747 mmHg 55%
02:00 +6°C° 0 mm 2 mps 746 mmHg 56%
03:00 +6°C° 0 mm 2 mps 746 mmHg 57%
04:00 +5°C° 0 mm 2 mps 746 mmHg 58%
05:00 +5°C° 0 mm 2 mps 745 mmHg 59%
06:00 +6°C° 0 mm 2 mps 745 mmHg 56%
07:00 +9°C° 0 mm 1 mps 745 mmHg 53%
08:00 +10°C° 0 mm 1 mps 745 mmHg 50%
09:00 +12°C° 0 mm 2 mps 745 mmHg 46%
10:00 +13°C° 0 mm 2 mps 745 mmHg 42%
11:00 +14°C° 0 mm 2 mps 745 mmHg 38%
12:00 +15°C° 0 mm 2 mps 745 mmHg 37%
13:00 +16°C° 0 mm 2 mps 744 mmHg 35%
14:00 +17°C° 0 mm 2 mps 744 mmHg 33%
15:00 +18°C° 0 mm 1 mps 743 mmHg 34%
16:00 +18°C° 0 mm 1 mps 743 mmHg 34%
17:00 +18°C° 0 mm 1 mps 743 mmHg 35%
18:00 +15°C° 0 mm 1 mps 743 mmHg 40%
19:00 +14°C° 0 mm 1 mps 743 mmHg 45%
20:00 +13°C° 0 mm 1 mps 743 mmHg 50%
21:00 +12°C° 0 mm 1 mps 743 mmHg 52%
22:00 +12°C° 0 mm 1 mps 743 mmHg 54%
23:00 +11°C° 0 mm 1 mps 743 mmHg 56%

Day after tomorrow, 13 April, Tuesday

Time Temperature Precipitation Wind Pressure Humidity
00:00 +10°C° 0 mm 1 mps 743 mmHg 58%
01:00 +10°C° 0 mm 1 mps 742 mmHg 60%
02:00 +8°C° 0 mm 0 mps 742 mmHg 62%
03:00 +9°C° 0 mm 1 mps 742 mmHg 64%
04:00 +9°C° 0 mm 1 mps 742 mmHg 65%
05:00 +8°C° 0 mm 1 mps 742 mmHg 67%
06:00 +10°C° 0 mm 1 mps 742 mmHg 64%
07:00 +11°C° 0 mm 1 mps 742 mmHg 61%
08:00 +12°C° 0 mm 2 mps 742 mmHg 58%
09:00 +14°C° 0 mm 2 mps 742 mmHg 54%
10:00 +15°C° 0 mm 2 mps 742 mmHg 49%
11:00 +16°C° 0 mm 2 mps 742 mmHg 45%
12:00 +17°C° 0 mm 2 mps 741 mmHg 45%
13:00 +18°C° 0 mm 3 mps 741 mmHg 45%
14:00 +18°C° 0 mm 3 mps 741 mmHg 45%
15:00 +18°C° 0 mm 4 mps 741 mmHg 48%
16:00 +17°C° 0 mm 4 mps 740 mmHg 51%
17:00 +17°C° 0 mm 4 mps 740 mmHg 55%
18:00 +14°C° 0 mm 4 mps 740 mmHg 61%
19:00 +13°C° 0 mm 4 mps 740 mmHg 68%
20:00 +12°C° 0 mm 4 mps 740 mmHg 75%
21:00 +11°C° 0 mm 4 mps 740 mmHg 76%
22:00 +11°C° 0 mm 4 mps 740 mmHg 76%
23:00 +11°C° 0 mm 4 mps 739 mmHg 77%

14 April, Wednesday

Time Temperature Precipitation Wind Pressure Humidity
00:00 +11°C° 0 mm 4 mps 739 mmHg 78%
01:00 +10°C° 0 mm 3 mps 739 mmHg 79%
02:00 +10°C° 0 mm 3 mps 738 mmHg 80%
03:00 +10°C° 0.1 mm 3 mps 738 mmHg 81%
04:00 +9°C° 0.1 mm 3 mps 738 mmHg 81%
05:00 +9°C° 0.1 mm 3 mps 738 mmHg 82%
06:00 +8°C° 0.2 mm 4 mps 738 mmHg 82%
07:00 +8°C° 0.2 mm 4 mps 738 mmHg 81%
08:00 +8°C° 0.2 mm 5 mps 738 mmHg 81%
09:00 +8°C° 0.2 mm 5 mps 738 mmHg 78%
10:00 +9°C° 0.2 mm 5 mps 738 mmHg 76%
11:00 +9°C° 0.2 mm 5 mps 738 mmHg 74%
12:00 +9°C° 0 mm 5 mps 738 mmHg 72%
13:00 +10°C° 0 mm 5 mps 738 mmHg 70%
14:00 +11°C° 0 mm 6 mps 737 mmHg 68%
15:00 +10°C° 0.1 mm 5 mps 737 mmHg 70%
16:00 +10°C° 0.1 mm 5 mps 737 mmHg 72%
17:00 +11°C° 0.1 mm 4 mps 737 mmHg 74%
18:00 +10°C° 0.5 mm 4 mps 737 mmHg 78%
19:00 +9°C° 0.5 mm 3 mps 737 mmHg 83%
20:00 +9°C° 0.5 mm 3 mps 737 mmHg 87%
21:00 +9°C° 0.4 mm 3 mps 737 mmHg 88%
22:00 +8°C° 0.4 mm 3 mps 737 mmHg 88%
23:00 +8°C° 0.4 mm 3 mps 737 mmHg 88%

15 April, Thursday

Time Temperature Precipitation Wind Pressure Humidity
00:00 +8°C° 0.5 mm 3 mps 737 mmHg 89%
01:00 +8°C° 0.5 mm 3 mps 737 mmHg 90%
02:00 +7°C° 0.5 mm 3 mps 737 mmHg 91%
03:00 +7°C° 0.3 mm 3 mps 736 mmHg 91%
04:00 +7°C° 0.3 mm 3 mps 736 mmHg 92%
05:00 +7°C° 0.3 mm 3 mps 736 mmHg 92%
06:00 +6°C° 0.3 mm 4 mps 736 mmHg 92%
07:00 +6°C° 0.3 mm 4 mps 736 mmHg 92%
08:00 +6°C° 0.3 mm 4 mps 737 mmHg 92%
09:00 +6°C° 0.2 mm 4 mps 737 mmHg 90%
10:00 +7°C° 0.2 mm 3 mps 737 mmHg 89%
11:00 +8°C° 0.2 mm 3 mps 737 mmHg 87%
12:00 +8°C° 0.2 mm 2 mps 737 mmHg 85%
13:00 +9°C° 0.2 mm 2 mps 737 mmHg 83%
14:00 +10°C° 0.2 mm 1 mps 736 mmHg 81%
15:00 +9°C° 0.2 mm 2 mps 736 mmHg 82%
16:00 +9°C° 0.2 mm 2 mps 736 mmHg 83%
17:00 +9°C° 0.2 mm 2 mps 736 mmHg 84%
18:00 +9°C° 0.1 mm 3 mps 736 mmHg 84%
19:00 +8°C° 0.1 mm 4 mps 736 mmHg 85%
20:00 +8°C° 0.1 mm 4 mps 736 mmHg 85%
21:00 +7°C° 0.1 mm 4 mps 736 mmHg 87%
22:00 +7°C° 0.1 mm 4 mps 736 mmHg 88%
23:00 +7°C° 0.1 mm 4 mps 736 mmHg 90%

16 April, Friday

Time Temperature Precipitation Wind Pressure Humidity
00:00 +7°C° 0.8 mm 5 mps 736 mmHg 91%
01:00 +6°C° 0.8 mm 5 mps 736 mmHg 92%
02:00 +5°C° 0.8 mm 6 mps 735 mmHg 94%
03:00 +6°C° 0.6 mm 5 mps 735 mmHg 94%
04:00 +6°C° 0.6 mm 5 mps 735 mmHg 94%
05:00 +7°C° 0.6 mm 5 mps 735 mmHg 94%
06:00 +7°C° 0.3 mm 5 mps 735 mmHg 93%
07:00 +7°C° 0.3 mm 5 mps 736 mmHg 92%
08:00 +8°C° 0.3 mm 5 mps 736 mmHg 91%
09:00 +8°C° 0.1 mm 6 mps 737 mmHg 89%
10:00 +8°C° 0.1 mm 6 mps 737 mmHg 87%
11:00 +8°C° 0.1 mm 6 mps 737 mmHg 85%
12:00 +8°C° 0.4 mm 7 mps 738 mmHg 85%
13:00 +8°C° 0.4 mm 7 mps 738 mmHg 86%
14:00 +8°C° 0.4 mm 7 mps 738 mmHg 86%
15:00 +6°C° 0.3 mm 7 mps 739 mmHg 86%
16:00 +6°C° 0.3 mm 7 mps 739 mmHg 86%
17:00 +5°C° 0.3 mm 7 mps 740 mmHg 86%
18:00 +5°C° 0.1 mm 7 mps 740 mmHg 86%
19:00 +5°C° 0.1 mm 7 mps 741 mmHg 87%
20:00 +5°C° 0.1 mm 7 mps 742 mmHg 87%
21:00 +4°C° 0.1 mm 7 mps 742 mmHg 88%
22:00 +4°C° 0.1 mm 7 mps 743 mmHg 88%
23:00 +4°C° 0.1 mm 6 mps 743 mmHg 88%
Show more